Home   Weather   Perm   Past weeks

Flag for Russia Past Weather in Perm, Russia — Yesterday and Last 2 Weeks

34 °F

Partly sunny.

Feels Like: 34 °F
Forecast: 26 / 34 °F
Wind: 1 mph from North

Location: Perm'/Bolshoe Savino

Current Time: Oct 25, 2016 at 4:57:39 PM

Latest Report: Oct 25, 2016 at 4:30 PM

Visibility: N/A

Pressure: 30.86 "Hg

Humidity: 87%

Dew Point: 30 °F

Location of PermLocation

Past Weather in Perm — Graph


Perm Temperature Yesterday

Maximum temperature yesterday: 34 °F (at 3:00 AM)
Minimum temperature yesterday: 32 °F (at 12:00 AM)
Average temperature yesterday: 33 °F

High & Low Weather Summary for the Past Weeks

High41 °F (Oct 10, 4:30 PM)100% (Oct 10, 10:30 PM)30.92 "Hg (Oct 10, 10:30 PM)
Low19 °F (Oct 16, 6:30 AM)36% (Oct 22, 3:30 PM)29.95 "Hg (Oct 13, 2:00 PM)
Average32 °F84%30.39 "Hg
* Reported Oct 10 3:00 PM — Oct 25 3:30 PM, Perm, Weather by CustomWeather, © 2016

Note: Actual official high and low records may vary slightly from our data, if they occured in-between our weather recording intervals... More about our weather records


Perm Weather History for the Previous 24 Hours

Scroll right to see more
Time TempWeatherWind HumidityBarometerVisibility
3:30 PM
Tue, Oct 25
34 °FPartly sunny.3 mph81%30.86 "HgN/A
3:00 PM34 °FPartly sunny.6 mph81%30.86 "HgN/A
2:30 PM34 °FPartly sunny.3 mph87%30.86 "HgN/A
2:00 PM34 °FPartly sunny.6 mph87%30.86 "HgN/A
1:30 PM34 °FSnow flurries. Partly sunny.6 mph87%30.86 "HgN/A
1:00 PM34 °FPartly sunny.8 mph87%30.86 "HgN/A
12:30 PM34 °FPartly sunny.6 mph87%30.83 "HgN/A
12:00 PM34 °FPartly sunny.6 mph87%30.83 "HgN/A
11:30 AM34 °FSnow flurries. Broken clouds.6 mph87%30.86 "HgN/A
11:00 AM32 °FLight snow. Scattered clouds.6 mph93%30.83 "HgN/A
10:30 AM32 °FLight snow. Scattered clouds.6 mph93%30.83 "HgN/A
10:00 AM32 °FLight snow. Scattered clouds.6 mph93%30.83 "HgN/A
9:30 AM32 °FLight snow. Overcast.6 mph93%30.83 "HgN/A
9:00 AM32 °FOvercast.6 mph87%30.83 "HgN/A
8:30 AM32 °FOvercast.6 mph87%30.83 "HgN/A
8:00 AM32 °FLight snow. Overcast.6 mph87%30.83 "HgN/A
7:30 AM32 °FLight snow. Overcast.6 mph87%30.83 "HgN/A
7:00 AM32 °FLight snow. Overcast.6 mph87%30.83 "HgN/A
6:30 AM32 °FLight snow. Overcast.6 mph87%30.83 "HgN/A
6:00 AM32 °FLight snow. Overcast.6 mph87%30.83 "HgN/A
5:30 AM32 °FSnow flurries. Passing clouds.6 mph87%30.80 "HgN/A
5:00 AM32 °FLight snow. Overcast.6 mph87%30.80 "HgN/A
4:30 AM32 °FOvercast.6 mph87%30.80 "HgN/A
4:00 AM32 °FLight snow. Overcast.8 mph87%30.80 "HgN/A
3:30 AM32 °FLight snow. Overcast.6 mph87%30.80 "HgN/A
3:00 AM32 °FLight snow. Overcast.8 mph87%30.80 "HgN/A
2:00 AM32 °FLight snow. Overcast.8 mph87%30.80 "HgN/A
1:00 AM32 °FLight snow. Overcast.8 mph87%30.80 "HgN/A
12:00 AM34 °FOvercast.6 mph81%30.83 "HgN/A
11:30 PM
Mon, Oct 24
34 °FOvercast.8 mph81%30.83 "HgN/A
11:00 PM34 °FOvercast.6 mph81%30.83 "HgN/A
10:30 PM34 °FLight snow. Overcast.8 mph81%30.83 "HgN/A
10:00 PM34 °FOvercast.8 mph81%30.83 "HgN/A
9:30 PM34 °FOvercast.8 mph81%30.83 "HgN/A
9:00 PM34 °FOvercast.8 mph81%30.83 "HgN/A
8:30 PM34 °FOvercast.8 mph81%30.83 "HgN/A
8:00 PM34 °FOvercast.8 mph81%30.83 "HgN/A
7:30 PM32 °FLight snow. Overcast.8 mph87%30.83 "HgN/A
7:00 PM32 °FOvercast.8 mph87%30.83 "HgN/A
6:30 PM32 °FLight snow. Overcast.10 mph87%30.86 "Hg6 mi
6:00 PM32 °FLight snow. Overcast.8 mph87%30.86 "HgN/A
5:30 PM32 °FOvercast.6 mph87%30.86 "HgN/A
5:00 PM32 °FLight snow. Overcast.6 mph87%30.86 "Hg6 mi
4:30 PM32 °FLight snow. Overcast.8 mph87%30.86 "HgN/A
4:00 PM32 °FOvercast.10 mph87%30.86 "HgN/A
Weather by CustomWeather, © 2016

See weather overviewHow to use our weather pages